#timestamp,LO_Frequency,Hit 
1503198015.1,286047002.6,N
1503198016.0,286047002.6,N
1503198035.8,286047000.1,N
1503198055.6,286047002.9,N
1503198075.4,286047003.5,N
1503198095.3,286047003.5,N
1503198115.1,286047001.7,N
1503198135.8,286047001.7,N
1503198155.7,286047002.2,N
1503198175.5,286047001.8,N
1503198195.3,286047002.2,N
1503198215.2,286047002.8,N
1503198235.9,286047002.6,N
1503198255.7,286047000.6,N
1503198275.6,286047001.9,N
1503198295.4,286047004.0,N
1503198315.2,286047004.0,N
1503198335.1,286047003.7,N
1503198336.0,286047003.7,N
1503198355.8,286047001.4,N
1503198375.6,286047001.4,N
1503198395.5,286047002.2,N
1503198415.3,286047001.9,N
1503198435.1,286047004.3,P
1503198455.9,286047000.3,N
1503198475.7,286046998.2,N
1503198495.5,286047000.2,N
1503198515.4,286047001.9,N
1503198535.2,286047002.6,N
1503198555.0,286047002.5,N
1503198555.9,286047002.5,N
1503198575.8,286047002.6,N
1503198595.6,286047000.3,N
1503198615.4,286047002.4,N
1503198635.3,286047000.3,N
1503198655.1,286047001.5,N
1503198656.0,286047001.5,N
1503198675.8,286047003.9,N
1503198695.7,286047000.3,N
1503198715.5,286047001.2,N
1503198735.3,286046998.6,N
1503198755.2,286046996.9,N
1503198775.9,286046998.4,N
1503198795.7,286046998.4,N
1503198815.5,286046997.2,N
1503198835.4,286046995.4,N
1503198855.2,286046997.7,N
1503198875.0,286046997.0,N
1503198875.9,286046997.0,N
1503198895.8,286046996.5,N
1503198915.9,286047001.1,N
1503198935.7,286046998.2,N
1503198955.5,286047000.2,N
1503198975.4,286046998.4,N
1503198995.2,286046998.7,N
1503199015.0,286047002.5,N
1503199015.9,286047002.5,N
1503199035.8,286047000.0,N
1503199055.6,286047000.6,N
1503199075.4,286047000.2,N
1503199095.3,286047000.4,N
1503199115.1,286047003.6,N
1503199116.0,286047003.6,N
1503199135.8,286047000.1,N
1503199155.7,286047000.0,N
1503199175.5,286047004.3,N
1503199195.3,286047002.4,N
1503199215.2,286047006.0,N
1503199235.9,286047003.5,N
1503199255.7,286047002.1,N
1503199275.2,286047003.1,N
1503199295.9,286047003.9,N
1503199315.7,286047005.9,N
1503199335.5,286047003.9,N
1503199355.4,286047005.1,N
1503199375.2,286047001.8,N
1503199395.0,286046999.7,N
1503199395.9,286046999.7,N
1503199415.8,286047002.4,N
1503199435.6,286047002.3,N
1503199455.4,286047001.4,N
1503199475.3,286047003.9,N
1503199495.1,286047007.3,P
1503199515.8,286047003.5,N
1503199535.7,286047003.2,N
1503199555.5,286047002.6,N
1503199575.3,286047003.7,N
1503199595.2,286047002.0,N
1503199615.9,286047004.1,N
1503199635.7,286047002.1,N
1503199655.6,286047002.4,N
1503199675.4,286047003.3,N
1503199695.2,286047002.4,N
1503199715.1,286047000.0,N
1503199716.0,286047000.0,N
1503199735.8,286047001.5,N
1503199755.6,286047003.7,N
1503199775.5,286046999.3,N
1503199795.3,286046998.5,N
1503199815.1,286046998.1,N
1503199835.8,286047000.8,N
1503199855.7,286046998.7,N
1503199875.5,286046998.4,N
1503199895.3,286046998.3,N
1503199915.2,286046999.6,N
1503199935.0,286046999.1,N
1503199955.0,286046997.6,N
1503199955.9,286046997.6,N
1503199975.8,286046997.0,N
1503199995.6,286046999.3,N
1503200015.4,286046999.1,N
1503200035.3,286046998.5,N
1503200055.1,286047003.6,N
1503200056.0,286047003.6,N
1503200075.8,286047002.0,N
1503200095.6,286046998.7,N
1503200115.5,286047000.6,N
1503200135.3,286046997.8,N
1503200155.1,286046995.4,N
1503200175.9,286046998.0,N
1503200195.7,286046997.8,N
1503200215.5,286046996.5,N
1503200235.4,286046998.5,N
1503200255.2,286046998.4,N
1503200275.0,286046997.7,N
1503200275.9,286046997.7,N
1503200295.8,286046998.2,N
1503200315.6,286046996.9,N
1503200335.4,286046997.6,N
1503200355.3,286046998.5,N
1503200375.1,286047000.6,N
1503200376.0,286047000.6,N
1503200395.8,286047000.2,N
1503200415.7,286047002.8,N
1503200435.5,286047002.0,N
1503200455.3,286047002.8,N
1503200475.2,286047002.2,N
1503200495.9,286047004.3,N
1503200515.7,286047004.4,N
1503200535.5,286047002.5,N
1503200555.4,286047002.8,N
1503200575.2,286047000.1,N
1503200595.0,286046999.7,N
1503200595.9,286046999.7,N
1503200615.8,286047000.1,N
1503200635.6,286047002.4,N
1503200655.4,286047003.8,N
1503200675.3,286047004.3,N
1503200695.1,286047005.9,N
1503200715.8,286047003.2,N
1503200735.7,286047001.9,N
1503200755.5,286046999.1,N
1503200775.3,286047000.5,N
1503200795.2,286047002.2,N
1503200815.9,286047001.9,N
1503200835.7,286047006.0,N
1503200855.6,286047004.4,N
1503200875.4,286047004.0,N
1503200895.2,286047003.8,N
1503200915.0,286047004.7,N
1503200916.0,286047004.7,N
1503200935.8,286047005.8,P
1503200955.6,286047002.5,N
1503200975.5,286047001.6,N
1503200995.3,286047001.7,N
1503201015.1,286047003.8,N
1503201035.9,286047001.3,N
1503201055.7,286047003.1,N
1503201075.5,286047000.2,N
1503201095.4,286046998.6,N
1503201115.2,286047001.1,N
1503201135.0,286046999.9,N
1503201135.9,286046999.9,N
1503201155.7,286046999.1,N
1503201175.6,286047004.0,N
1503201195.4,286047004.4,N
1503201215.7,286047002.9,N
1503201235.6,286047001.9,N
1503201255.4,286047002.0,N
1503201275.2,286046997.1,N
1503201295.0,286046999.3,N
1503201295.9,286046999.3,N
1503201315.8,286046998.5,N
1503201335.6,286047004.1,N
1503201355.4,286047002.3,N
1503201375.3,286047002.2,N
1503201395.1,286047001.7,N
1503201415.8,286047002.8,N
1503201435.7,286047002.7,N
1503201455.5,286047001.7,N
1503201475.3,286047001.5,N
1503201495.2,286046999.7,N
1503201515.9,286047002.6,N
1503201535.7,286047002.3,N
1503201555.6,286047000.2,N
1503201575.4,286047000.0,N
1503201595.2,286046998.1,N
